Wind_Speed
48 48 48 47 47 47 46 45 45 44 44 45 44 42 40 39 40 40 40 40 40 39 39 38 36 32 30 31 33 33 32 30 29 31 36 44 48 48 44 39 35 32 31 31 24 20 25 27 22 25 30 27 24 23 23 20 19 20 24 30 37 39 38 37 38 36 33 30 26 23 20 22 31 36 33 31 31 30 30 29 24 21 23 25 26 29 31
49 48 48 48 47 47 46 46 45 44 44 45 44 43 40 38 39 42 42 41 41 40 39 37 35 32 31 32 33 34 33 31 31 32 37 43 48 50 47 40 37 35 33 32 26 20 24 27 21 23 33 32 23 19 18 17 18 21 23 26 34 43 43 40 40 39 36 32 29 27 25 26 34 38 35 33 32 33 33 32 28 25 23 24 24 27 29
49 49 48 48 47 47 46 46 45 44 44 44 44 43 41 38 39 42 43 41 40 39 37 36 36 34 34 34 34 35 35 32 32 33 37 43 48 51 50 44 39 38 37 34 28 23 26 28 25 25 33 36 30 23 21 19 16 18 20 20 29 42 46 42 43 43 40 36 32 30 29 28 31 34 34 33 33 36 38 36 33 30 26 25 25 26 28
49 49 48 48 47 47 46 46 46 44 43 44 44 43 41 39 39 41 42 41 39 37 35 36 37 36 36 35 35 37 36 34 33 35 38 41 46 52 53 48 43 41 42 38 30 25 28 30 28 29 32 36 35 31 30 31 26 19 18 18 24 39 47 45 43 43 41 37 29 24 25 27 28 30 30 30 30 35 41 40 37 35 30 28 27 26 26
49 48 48 48 47 47 46 46 46 45 43 44 44 43 42 40 38 39 40 40 39 37 37 37 36 35 35 34 35 37 38 36 34 36 38 40 44 50 54 53 48 44 44 44 36 28 29 32 30 32 36 38 38 35 35 37 35 28 24 22 23 34 47 47 42 40 37 32 27 26 27 26 25 25 26 27 26 30 41 43 39 36 34 30 27 26 25
48 48 48 47 47 47 46 46 46 46 44 44 44 44 42 40 38 38 39 40 40 38 37 36 36 35 35 34 35 37 38 38 35 35 39 41 42 46 51 53 51 46 45 48 44 32 29 31 33 36 42 43 42 40 37 36 36 33 30 28 26 30 42 49 43 39 36 29 26 29 32 31 28 24 24 25 23 25 36 43 40 38 39 35 31 30 30
48 48 48 47 47 47 47 47 47 47 46 44 44 44 42 40 39 38 39 40 41 39 37 36 35 35 35 35 35 37 39 40 39 38 40 43 43 45 46 48 51 49 46 49 48 40 33 31 34 39 46 47 44 43 42 39 37 35 33 32 30 29 37 47 46 40 36 31 27 28 32 35 32 27 25 26 25 24 29 38 41 39 38 38 36 35 35
49 49 48 48 48 48 47 47 47 47 47 46 45 44 43 41 39 38 39 38 40 40 37 36 36 35 35 36 37 38 39 42 44 42 43 45 46 48 47 44 49 52 47 44 45 44 40 35 34 40 46 46 43 42 43 42 38 37 36 34 35 33 34 43 48 43 38 33 30 29 32 35 33 29 30 31 32 31 29 33 40 40 36 36 36 36 36
50 50 50 49 49 49 48 48 48 48 48 48 46 44 42 42 40 38 38 38 38 40 38 37 37 36 37 38 39 39 39 42 46 45 46 47 47 51 51 45 47 53 47 41 42 44 45 41 39 44 47 45 42 42 43 41 36 38 40 39 39 37 36 39 44 45 43 39 36 32 32 34 33 31 34 36 35 35 32 33 38 40 36 35 36 39 37
51 51 51 50 50 49 49 49 48 48 48 48 48 45 42 41 40 38 38 38 38 39 38 38 38 38 39 40 39 40 40 42 46 47 47 49 48 51 55 51 48 51 47 42 43 44 45 45 44 48 49 46 46 45 44 39 33 35 42 43 41 40 40 40 41 43 43 41 40 37 34 34 34 34 38 39 37 34 32 33 38 39 36 35 36 39 37
51 51 51 50 50 49 48 48 47 46 46 46 47 46 42 40 40 39 37 37 39 39 38 40 40 39 40 41 42 43 42 42 47 49 48 49 50 52 56 55 51 50 48 45 45 45 45 46 48 50 50 48 49 49 46 39 33 33 41 46 45 44 42 41 41 42 40 39 39 40 39 39 38 37 37 37 39 38 34 34 38 40 39 37 36 36 34
50 50 50 49 49 48 46 46 45 44 43 43 45 45 42 39 38 38 37 37 39 40 39 40 42 40 40 42 43 45 44 42 45 49 49 49 52 54 57 58 54 53 55 52 47 46 45 47 51 52 51 50 52 52 48 39 32 32 39 45 47 47 44 40 41 43 42 40 39 41 44 46 44 42 39 36 37 41 41 37 36 38 40 40 39 36 34
48 49 49 48 47 46 45 43 43 41 40 40 41 43 41 38 37 37 37 37 39 41 40 41 43 42 41 43 44 44 45 42 43 49 50 50 53 54 56 60 58 58 61 58 50 49 48 47 51 54 52 52 55 53 47 40 34 33 38 43 45 46 44 41 42 46 47 44 42 43 45 46 46 47 45 41 38 39 41 40 37 36 38 39 39 39 39
45 45 46 46 45 44 43 41 40 39 38 38 39 40 39 38 37 37 37 38 39 41 41 41 43 43 41 43 44 43 43 41 42 49 51 49 52 53 53 57 60 60 62 60 56 56 55 49 49 52 52 52 55 55 48 41 38 37 38 42 45 47 46 42 41 47 51 48 46 45 45 43 44 47 48 45 42 40 40 40 40 40 39 38 39 41 42
42 42 42 43 42 42 41 40 38 38 37 37 37 38 38 37 37 37 37 38 40 41 41 41 42 43 43 43 43 42 41 40 43 50 52 49 49 51 51 53 56 57 59 60 61 63 62 56 51 49 49 50 53 56 52 43 40 42 40 40 43 47 48 44 39 40 47 50 49 48 47 45 44 45 49 49 47 44 42 41 42 42 40 39 42 44 44
40 39 38 39 38 38 38 38 37 36 36 37 37 37 37 37 37 37 38 39 40 40 41 41 42 43 43 43 43 42 41 41 42 49 52 49 47 48 50 52 53 53 53 54 58 64 66 63 56 50 49 50 51 55 54 47 44 45 42 38 39 45 48 47 42 40 43 48 50 50 50 51 50 48 50 52 50 48 45 42 43 45 43 40 42 44 45
38 37 36 35 35 35 35 35 36 35 36 37 37 37 37 37 38 38 38 39 40 40 41 41 42 42 43 43 43 43 43 42 43 46 50 50 46 45 49 53 53 52 50 45 48 57 64 65 61 54 50 51 53 55 56 52 49 49 45 39 38 41 45 47 47 47 47 48 50 51 50 52 55 54 53 52 53 52 49 46 45 45 43 42 42 42 43
36 35 34 33 33 33 33 34 34 35 36 37 38 38 38 38 38 38 39 39 39 39 40 41 41 42 42 43 43 43 44 44 43 46 49 50 47 44 47 52 54 54 53 47 44 48 55 62 63 57 53 54 56 57 59 57 54 52 49 45 42 42 43 45 48 50 52 52 52 53 53 54 57 59 58 55 53 52 51 50 50 48 45 44 44 43 44
34 33 32 32 31 31 32 33 34 34 35 37 39 39 39 39 38 38 39 39 39 38 39 41 41 41 42 43 42 43 45 45 45 46 47 49 48 44 44 50 55 54 53 51 50 49 50 57 63 60 55 56 55 54 57 59 58 55 52 48 46 45 45 46 47 48 51 53 54 54 55 56 58 59 59 57 54 51 51 52 53 52 49 48 47 47 47
32 32 31 30 30 30 31 32 33 34 35 36 38 39 39 38 38 38 38 39 38 37 39 41 41 40 42 43 43 44 46 46 46 47 46 48 49 44 40 44 51 53 49 48 53 53 47 48 59 63 59 57 54 51 53 56 57 55 52 50 49 49 51 52 52 51 50 52 54 55 56 58 58 57 58 58 55 53 53 54 54 54 52 52 51 51 52
30 30 29 29 29 29 30 32 33 33 34 35 37 38 38 38 38 38 38 39 38 37 38 40 40 40 41 42 42 44 46 46 47 48 47 47 48 47 41 36 37 44 46 43 45 45 36 34 44 54 56 56 53 50 51 53 53 52 52 52 51 51 52 53 54 56 55 54 54 55 56 56 54 52 54 57 57 54 55 57 57 57 57 57 56 56 56
29 28 28 28 29 29 30 31 32 32 33 34 35 37 37 37 38 38 38 38 37 36 37 39 39 39 40 41 42 44 46 46 46 46 46 46 47 48 47 38 29 30 35 36 35 35 29 26 32 39 44 48 49 49 49 50 51 50 49 50 49 47 46 45 45 48 52 52 52 52 51 50 47 43 43 48 50 49 50 53 56 57 59 59 60 60 58
27 27 27 28 28 29 29 30 31 31 32 32 33 35 35 36 37 37 37 37 36 36 37 38 38 38 39 41 41 42 44 45 45 44 44 46 48 48 49 47 38 30 27 29 30 30 28 26 29 31 34 39 45 49 47 46 48 50 48 45 45 45 43 41 39 40 44 46 49 51 49 47 44 41 39 40 43 45 46 48 50 52 52 53 53 54 53
26 26 26 27 27 27 28 29 29 30 30 30 32 33 34 34 35 35 36 35 34 36 37 37 38 38 38 38 39 40 41 42 44 43 40 43 49 49 46 46 45 38 30 28 30 30 29 28 30 31 33 35 39 44 46 44 45 47 47 44 43 44 43 41 39 41 44 45 48 51 50 48 46 43 40 39 41 42 41 42 44 46 47 48 48 46 45
25 25 25 26 25 25 27 28 28 28 29 29 30 31 32 32 33 33 34 32 32 34 37 38 37 37 37 36 37 38 39 39 41 42 38 40 48 51 46 44 43 39 34 32 31 30 30 31 32 33 34 34 36 39 42 42 42 43 44 43 42 42 42 41 40 41 44 45 46 47 48 48 48 46 43 41 41 41 40 41 44 46 46 46 44 42 41
24 24 24 25 24 23 24 27 27 28 28 28 29 29 30 30 31 31 31 30 29 31 35 38 38 37 36 37 37 37 36 35 37 38 36 37 47 52 48 44 42 37 34 36 35 31 30 32 33 34 34 34 36 38 40 41 42 42 41 41 41 40 40 40 40 39 40 42 43 43 43 43 42 41 40 40 41 42 42 41 42 45 46 45 42 40 39
23 22 22 24 24 22 22 25 27 27 28 28 28 28 28 28 29 29 28 27 26 28 32 36 39 38 37 37 36 35 33 32 33 34 33 35 44 50 47 43 40 37 35 37 37 35 32 31 33 33 34 34 35 37 39 40 42 42 42 41 40 40 40 40 40 38 37 38 39 40 39 38 36 36 36 36 34 34 35 34 34 39 44 43 39 37 37
21 22 21 23 25 23 21 23 26 27 27 27 27 27 27 27 27 27 26 26 26 26 28 33 37 37 36 35 34 31 30 30 30 31 31 33 39 46 46 41 38 37 37 37 37 36 34 33 33 34 34 34 34 35 37 38 38 39 42 42 41 41 41 41 41 39 38 38 39 39 37 35 35 36 36 36 34 32 32 32 32 33 37 37 35 33 33
21 22 21 21 23 23 21 22 26 27 27 27 27 26 26 26 26 26 26 25 25 25 26 29 34 35 34 33 31 29 27 28 28 29 29 30 35 41 43 40 37 37 38 38 37 36 34 34 35 35 34 34 34 33 34 35 34 33 37 40 42 41 41 41 40 40 39 39 40 39 38 37 38 37 37 37 37 36 34 34 33 33 35 36 35 32 30
21 21 20 20 22 22 21 22 25 26 27 27 26 25 25 25 26 26 25 25 25 25 25 27 30 32 32 31 29 27 26 26 27 27 26 28 32 36 39 38 36 36 38 39 37 35 35 35 36 35 34 34 33 32 32 32 31 30 31 34 36 38 39 40 40 40 41 41 40 40 40 40 40 40 39 39 39 37 35 35 35 36 36 36 33 31 29
20 20 19 18 20 21 21 22 24 26 26 26 26 25 25 25 25 25 25 25 25 24 24 26 28 29 30 29 27 26 25 25 25 25 25 27 30 32 34 35 35 35 37 38 36 34 35 35 36 35 34 33 32 31 31 31 30 29 28 29 30 31 33 34 35 36 37 39 39 38 39 39 39 38 38 37 36 35 34 35 36 36 36 34 32 31 31
19 19 17 18 19 20 20 22 25 25 26 26 26 25 25 24 25 25 24 24 24 23 24 26 27 27 28 28 26 24 23 23 24 23 23 26 30 30 30 31 32 33 35 36 35 34 34 35 36 35 33 32 31 30 30 30 29 29 29 29 29 30 30 29 30 31 31 32 32 33 33 33 33 32 31 31 31 31 32 33 34 34 34 32 31 31 32
18 17 17 18 18 19 20 23 25 25 26 26 25 24 24 24 25 25 25 24 23 22 23 26 27 26 26 26 25 23 22 22 22 21 22 26 30 30 29 29 29 30 32 34 33 33 34 36 35 34 32 32 31 30 30 30 29 29 29 30 30 29 29 29 29 29 29 29 29 30 30 29 28 28 27 27 28 29 30 29 29 30 30 30 31 31 33
17 16 16 17 17 18 20 23 25 25 25 25 24 24 24 25 24 24 24 23 22 22 24 27 28 26 25 25 24 23 21 21 21 20 21 26 31 32 29 28 27 27 29 31 31 31 33 34 34 32 31 30 30 29 29 29 30 30 31 32 31 29 29 29 29 29 28 28 27 27 27 27 27 28 28 28 29 30 31 31 31 31 31 31 32 33 34
16 16 16 17 16 17 21 24 25 25 25 25 24 24 24 24 24 23 22 22 21 22 25 27 27 26 25 25 25 25 23 21 20 20 20 24 31 33 30 28 26 25 26 28 29 30 31 32 30 29 28 28 29 30 30 31 32 33 33 33 32 31 30 29 29 28 26 25 25 25 25 27 28 30 31 33 34 34 34 33 33 33 34 34 35 37 37
16 16 17 17 16 18 23 25 25 25 25 24 24 24 24 23 23 22 21 21 21 22 25 28 28 26 25 24 24 25 25 22 21 20 19 21 28 34 33 29 26 24 24 26 27 27 28 29 28 27 27 28 28 30 31 33 34 35 34 33 32 31 30 28 26 24 22 23 25 27 29 31 33 33 34 34 35 35 35 35 36 36 37 37 38 39 39
16 17 18 17 16 19 24 26 25 25 24 23 23 23 23 22 22 22 21 21 22 23 26 28 28 26 25 24 22 23 24 23 22 21 19 19 22 29 33 33 30 26 25 25 25 25 24 25 26 26 26 27 27 28 29 31 32 34 34 33 31 29 27 24 22 22 23 25 28 31 32 33 33 33 34 34 35 35 37 38 38 39 39 38 38 38 38
17 18 18 16 17 21 25 25 25 24 24 23 22 22 21 22 22 21 21 21 22 25 27 28 28 27 26 25 23 21 22 22 21 20 20 20 20 23 27 31 32 31 28 25 24 23 22 22 24 26 26 27 29 29 30 31 32 32 31 30 29 27 25 24 25 27 29 30 31 31 31 31 32 32 33 34 35 36 36 37 37 38 38 37 37 37 37
17 17 17 16 19 24 26 25 24 23 22 22 22 21 21 22 22 21 21 22 23 25 27 29 29 28 27 25 23 21 21 22 21 20 19 20 21 21 22 25 27 29 29 27 26 25 23 24 27 29 29 29 30 30 30 30 30 29 27 25 24 23 23 25 28 29 30 30 30 29 29 30 30 31 32 33 33 34 35 35 36 37 37 37 37 37 38
17 16 16 18 22 26 26 25 24 22 21 21 21 21 21 21 21 20 21 23 25 25 27 28 28 27 26 25 23 21 21 21 21 20 19 19 20 20 20 20 21 23 23 23 24 25 26 27 29 30 30 28 28 27 26 26 25 23 22 22 22 24 26 28 29 29 29 28 29 29 29 29 29 30 31 32 32 33 34 34 35 36 37 38 38 39 39
16 15 16 21 26 27 26 25 23 22 21 20 20 20 20 20 20 20 22 25 26 27 28 28 27 26 26 25 23 22 22 21 21 20 19 19 19 19 19 19 19 19 19 19 20 21 23 25 27 28 27 26 24 23 22 21 21 20 21 23 25 27 29 29 29 28 27 28 28 29 29 30 30 31 31 32 32 33 33 34 34 35 36 37 38 39 39
16 15 17 23 27 27 26 25 23 22 21 21 20 20 20 20 19 20 22 25 27 28 29 28 28 27 28 26 23 22 23 23 22 22 21 18 18 18 20 20 20 19 19 19 19 19 20 21 23 23 22 21 20 20 19 19 20 21 22 24 26 27 28 28 27 27 28 28 28 29 29 29 30 30 30 30 31 31 32 32 33 34 35 36 37 38 39
16 16 19 25 28 27 25 24 23 21 21 21 21 21 21 20 19 19 21 23 26 28 28 27 27 28 27 25 22 20 21 22 23 23 22 20 18 19 21 22 22 20 20 20 20 20 20 21 20 20 19 17 16 16 17 18 19 21 22 24 25 26 26 26 26 27 27 27 27 27 27 28 28 28 28 29 29 30 31 32 33 35 36 37 39 40 41
18 18 19 24 28 27 25 24 23 22 21 22 22 23 23 22 22 21 20 21 24 26 26 25 26 27 27 24 20 20 21 23 23 23 23 22 22 22 22 22 22 22 22 23 23 22 21 19 17 16 15 15 15 15 16 17 19 20 21 22 23 23 23 23 24 25 26 26 26 27 27 27 28 29 29 30 31 32 33 34 35 37 38 39 40 42 43
20 19 20 24 27 27 25 24 24 24 24 24 24 24 24 24 23 22 21 21 22 24 24 24 25 26 26 24 21 21 23 24 23 23 23 23 24 25 24 22 22 23 22 22 22 21 20 18 16 14 14 14 15 17 17 19 20 21 20 20 20 21 22 23 24 25 26 26 27 27 28 28 29 30 32 33 33 34 36 37 37 38 39 40 41 42 42
20 20 21 24 27 26 25 26 27 26 26 26 26 26 25 24 22 22 22 22 22 21 21 22 24 25 26 24 22 22 23 24 23 23 23 23 23 24 23 21 20 21 21 20 19 19 18 18 18 17 16 16 18 19 20 20 20 19 18 18 19 20 22 23 24 25 26 26 27 28 29 30 31 33 34 35 36 37 37 38 38 38 38 38 39 39 40
21 20 21 24 26 26 26 28 29 28 27 26 26 26 25 23 21 21 21 20 20 20 20 21 23 24 25 24 22 21 22 23 23 22 22 21 20 20 19 18 19 20 20 20 19 18 17 17 17 18 18 19 19 20 20 19 18 18 18 19 20 20 21 22 23 25 26 27 28 30 31 32 33 34 34 35 35 35 34 34 34 34 34 34 35 36 37
21 20 21 24 26 27 27 28 29 29 28 28 27 27 25 22 21 20 19 18 20 21 20 20 21 23 23 23 21 19 19 21 21 21 20 18 17 17 17 18 20 21 21 20 18 17 16 17 18 19 20 20 19 18 18 18 18 19 19 20 20 21 22 23 24 26 27 28 29 30 30 31 31 31 31 31 30 29 29 28 28 29 29 30 30 31 31
21 21 22 24 25 27 28 28 28 28 28 28 28 27 25 23 22 22 21 21 22 22 21 21 21 21 21 21 21 19 19 20 20 19 18 18 17 17 18 19 20 21 21 19 18 17 17 18 19 19 19 18 17 17 17 18 19 19 19 20 21 22 23 24 25 25 26 26 27 26 26 26 26 26 26 26 25 24 24 24 25 25 26 26 27 27 28
22 23 23 24 26 27 27 27 27 25 24 24 23 22 22 22 23 24 24 23 23 23 23 22 21 21 21 21 20 19 19 20 20 19 19 19 19 19 20 19 19 19 18 18 18 17 17 17 18 18 17 17 17 17 18 18 19 19 20 21 22 22 23 23 23 24 23 23 23 22 22 22 22 22 22 21 21 22 22 23 23 24 25 26 27 27 27
23 23 23 24 26 27 27 27 26 25 23 22 21 20 21 21 22 23 23 23 22 22 22 21 21 21 22 21 20 19 18 19 19 19 20 21 20 20 20 19 19 18 18 18 18 18 17 17 17 17 17 17 18 18 19 19 19 19 20 20 21 21 21 21 21 21 21 20 20 20 20 20 20 19 19 19 19 20 21 22 23 24 25 26 26 26 25
23 24 23 24 25 27 28 28 27 25 23 22 21 21 21 21 21 21 21 21 20 19 19 19 19 20 19 19 19 19 19 19 20 20 20 21 20 19 19 18 18 18 18 18 18 18 18 17 17 18 18 19 19 19 19 19 19 18 18 19 19 20 20 20 19 19 19 19 19 19 18 18 18 18 18 19 19 20 21 21 22 22 22 22 22 22 21
Wind_Direction
270 268 267 266 265 264 262 261 259 259 259 259 257 257 257 258 257 254 252 252 252 251 251 252 253 253 250 248 245 240 234 226 221 219 213 209 209 207 201 193 193 194 188 183 188 202 198 191 206 229 233 238 241 233 232 232 226 225 222 218 213 210 212 210 202 204 208 205 206 203 206 223 219 216 226 228 222 224 224 226 234 237 236 241 247 252 255
268 267 266 265 264 263 262 260 258 257 258 258 256 256 256 256 255 253 250 250 249 249 248 248 249 248 244 242 241 238 234 227 222 219 214 211 210 208 202 196 198 201 198 197 202 209 203 192 194 219 225 226 231 229 227 230 227 224 221 218 212 208 208 208 202 202 206 205 201 197 197 209 215 218 227 231 227 226 226 225 226 224 229 239 245 250 255
267 266 265 264 263 262 261 259 257 256 257 257 255 255 255 254 253 252 250 249 249 248 247 246 246 244 240 238 236 234 231 226 222 218 213 212 212 209 205 202 202 205 203 202 203 207 210 203 193 202 218 220 216 214 218 226 230 226 223 221 216 210 207 206 204 202 203 203 200 198 198 205 214 217 224 232 233 231 232 229 222 220 226 232 239 247 252
266 266 265 264 263 262 260 259 257 255 255 256 254 253 253 253 252 252 251 249 248 247 245 244 245 244 242 240 235 231 227 223 222 219 213 211 213 211 208 207 207 209 208 203 200 204 212 210 196 193 210 217 212 208 212 217 220 220 220 225 222 213 208 207 205 204 207 210 209 209 210 212 217 217 218 226 230 231 234 233 224 224 232 237 239 246 250
266 265 264 263 262 261 260 259 256 254 253 254 253 252 252 252 250 250 250 248 246 244 242 241 241 242 244 243 238 232 226 221 221 220 213 211 213 212 211 211 210 210 211 205 200 204 211 213 205 194 198 207 209 208 211 213 213 211 212 222 228 219 211 207 204 205 211 213 208 213 225 226 222 220 219 225 232 227 224 225 226 228 232 237 240 243 246
266 265 264 262 262 260 259 257 256 253 251 252 252 251 250 250 248 247 247 246 244 242 240 239 238 238 239 239 236 233 227 220 218 219 215 212 213 212 213 214 212 213 215 208 202 204 208 212 215 202 192 195 202 206 209 212 212 209 208 213 222 223 214 208 205 207 209 206 202 212 227 229 225 228 226 225 235 234 221 219 222 225 228 233 239 241 242
265 264 262 261 260 258 257 256 255 253 250 249 250 250 249 248 246 244 243 244 243 242 239 236 236 235 235 233 232 231 228 220 215 215 216 213 211 211 213 216 216 216 216 209 203 205 205 208 218 209 192 190 197 202 207 210 211 209 206 207 212 220 218 209 206 208 208 202 199 208 221 225 225 229 229 222 226 231 226 223 223 225 230 235 240 243 246
264 262 261 259 258 256 255 254 254 252 249 247 248 249 248 246 244 243 241 241 242 241 238 234 232 232 232 230 229 228 226 222 216 213 214 214 210 208 210 216 218 218 217 211 208 209 206 204 213 211 197 189 192 199 204 207 208 206 203 207 209 212 215 211 208 210 209 202 198 204 215 223 224 223 221 220 222 223 224 227 227 228 232 235 238 241 247
262 261 259 258 256 255 254 253 252 252 249 246 246 247 247 245 243 241 240 238 238 239 237 233 229 228 228 229 228 226 224 223 220 214 213 215 212 209 209 214 217 218 219 218 216 214 209 204 207 209 203 193 188 194 200 202 204 203 203 209 213 209 210 212 210 212 212 206 203 206 211 215 217 216 214 217 224 228 228 225 223 224 229 235 239 240 244
261 260 258 256 255 253 252 252 251 251 250 247 245 245 246 245 243 240 237 235 235 235 235 233 229 226 226 227 226 224 223 222 220 216 212 214 214 211 211 212 214 218 222 225 224 218 211 207 206 207 206 198 189 192 197 196 198 201 202 206 212 211 209 210 211 214 216 214 212 211 210 208 208 208 210 214 222 229 231 223 219 223 230 238 242 241 242
260 258 256 255 254 253 252 251 251 251 250 248 246 245 245 244 242 239 235 233 232 231 230 231 229 225 224 226 225 224 223 220 219 216 212 213 213 211 212 213 213 216 222 225 226 221 212 207 206 207 206 201 193 192 196 196 195 199 201 204 210 214 212 210 210 213 217 221 220 216 215 214 213 210 212 219 223 223 223 220 219 222 227 232 237 239 239
260 258 256 255 254 253 252 252 251 251 250 249 247 245 244 243 240 238 234 230 230 230 227 228 229 225 223 225 226 225 224 221 219 217 213 213 213 211 211 213 214 217 222 224 224 221 214 207 206 207 206 202 198 195 196 198 195 196 199 202 208 215 214 211 211 212 215 219 221 220 221 222 221 219 219 226 227 222 221 222 221 222 225 227 229 232 235
261 259 257 256 255 254 253 252 251 250 248 247 246 245 244 242 238 236 232 227 226 228 226 225 227 225 223 223 226 226 225 222 220 218 214 214 214 213 212 214 216 220 223 224 223 222 220 212 208 208 207 204 201 198 197 199 197 197 201 204 209 215 212 208 210 213 215 217 218 222 225 226 227 225 225 229 230 225 225 229 229 229 230 230 228 230 233
262 260 258 256 255 253 252 251 249 248 246 245 244 243 242 240 236 233 231 226 224 226 225 225 225 225 223 223 225 226 225 222 219 219 217 215 216 215 215 216 219 222 224 223 222 225 226 221 214 212 210 207 204 200 198 199 198 200 203 204 208 214 212 207 209 214 216 218 218 221 225 228 229 229 228 230 231 228 229 234 235 235 236 237 236 236 236
263 262 259 256 254 252 251 249 247 245 243 241 241 240 238 236 234 231 228 224 223 224 224 224 224 224 223 223 224 225 225 222 219 219 219 218 216 216 217 218 219 221 223 223 222 224 228 228 223 217 214 212 208 203 201 200 199 200 201 199 204 210 211 208 207 210 215 218 219 221 225 227 229 229 228 229 231 230 230 233 236 236 237 241 244 246 245
264 262 259 256 253 250 248 246 243 242 240 238 237 236 234 233 231 229 227 224 222 222 222 223 224 223 222 223 223 223 223 222 218 217 218 219 218 216 216 218 220 219 220 223 223 223 226 228 226 222 220 219 215 207 204 204 203 200 196 194 198 203 207 209 209 209 212 216 219 221 223 225 227 227 225 225 228 229 226 229 235 236 235 239 244 247 249
263 261 259 255 251 247 244 243 240 237 236 234 234 233 231 230 228 227 226 223 221 221 221 221 222 222 222 222 223 222 222 221 218 216 217 219 220 217 215 218 221 219 217 221 224 223 225 227 227 225 223 223 223 216 210 207 207 203 197 194 195 197 202 208 211 213 214 216 219 220 220 221 222 223 223 224 227 227 225 229 237 239 239 241 241 243 246
261 260 257 253 249 244 241 239 236 234 232 231 230 229 228 227 226 225 225 222 220 220 220 219 219 221 221 222 223 222 221 221 219 217 218 218 219 218 215 217 221 223 221 222 224 224 224 225 227 225 221 222 227 226 219 213 211 209 207 204 199 195 199 204 208 213 216 217 220 221 220 219 220 220 221 223 226 227 228 232 238 241 245 249 248 247 246
259 257 255 251 246 241 237 235 233 231 229 229 228 227 226 225 224 224 224 222 219 219 220 218 217 218 220 221 222 222 222 223 221 218 218 219 219 219 217 216 219 223 225 225 224 223 222 223 224 224 221 221 227 230 228 223 218 216 217 216 208 200 199 203 205 209 213 217 221 223 224 224 223 221 221 222 226 231 234 237 240 242 246 252 254 254 253
257 254 252 248 243 237 234 232 231 229 228 228 227 226 224 223 222 222 223 222 219 219 220 217 215 216 218 219 221 222 224 226 224 220 219 220 221 221 219 218 219 222 225 225 222 222 222 220 220 221 222 225 228 230 230 229 226 223 222 221 217 210 205 205 207 208 211 216 220 224 226 228 228 227 226 225 228 233 236 238 241 244 246 250 252 254 255
255 252 249 245 239 234 231 230 229 228 227 227 226 225 223 222 221 221 222 221 218 218 219 217 214 215 217 218 220 222 225 228 226 223 220 219 222 224 220 212 212 219 222 220 219 220 222 217 213 215 220 225 229 230 230 230 231 231 228 224 222 219 215 214 214 212 213 215 218 222 227 232 234 233 232 230 231 234 237 238 241 244 246 248 250 251 253
251 247 245 241 236 231 228 228 227 226 226 226 225 224 223 221 220 221 222 222 218 215 217 217 215 215 217 218 219 222 226 228 227 225 222 218 220 225 222 213 208 213 215 213 214 218 220 216 211 211 215 219 223 225 228 228 230 234 234 231 228 225 222 222 223 220 218 218 219 223 228 233 237 240 241 237 234 235 236 238 240 242 245 247 248 249 250
246 242 240 237 233 229 227 226 225 224 224 224 224 224 222 221 220 220 222 222 218 214 215 216 214 215 217 218 219 222 226 228 227 226 225 220 218 222 224 224 224 222 213 208 211 215 215 214 214 212 212 215 218 222 225 226 227 231 234 236 236 234 231 231 234 235 234 230 228 229 234 239 244 250 253 250 245 243 241 240 240 242 244 246 247 247 249
241 238 236 233 230 228 226 225 223 222 221 221 222 223 221 220 219 219 221 222 218 213 213 215 214 215 218 219 221 224 226 228 228 228 227 221 217 219 224 227 230 231 223 215 213 212 209 209 212 214 213 213 215 220 223 225 226 230 233 236 239 240 238 239 241 244 246 245 241 239 241 246 249 253 257 257 255 253 248 245 243 243 245 246 247 249 252
236 235 233 228 226 226 227 225 221 218 218 219 220 220 219 218 218 218 219 220 218 214 213 214 215 216 218 221 224 226 229 230 229 228 228 222 217 218 222 225 228 231 227 220 216 212 208 207 210 213 215 214 213 216 221 223 225 228 230 233 236 238 239 240 242 243 246 249 250 247 247 249 251 252 254 255 255 254 254 254 252 250 248 248 247 248 252
231 232 229 223 220 225 228 225 219 215 215 216 217 217 216 215 216 216 217 217 217 214 214 214 215 215 218 222 225 228 230 232 228 226 227 222 216 217 221 223 225 227 225 220 218 215 209 209 211 213 215 216 216 216 218 221 224 226 228 230 234 237 239 241 242 244 246 248 251 252 251 251 251 252 252 253 252 252 254 257 258 255 253 252 248 246 247
227 227 226 221 217 221 226 223 216 212 212 213 213 213 213 212 213 214 213 212 212 213 213 213 215 216 218 222 226 228 229 230 228 226 225 221 215 216 219 222 222 223 221 218 218 216 212 212 213 213 214 217 219 218 218 220 222 224 227 229 232 236 240 243 244 245 247 249 249 250 249 248 249 250 251 251 253 255 256 259 263 261 255 250 247 246 247
221 222 223 221 216 216 221 220 213 208 208 209 209 209 209 208 209 209 208 207 208 210 210 210 212 215 218 220 224 226 226 226 226 225 223 220 215 215 217 220 220 219 218 217 217 216 214 215 216 215 214 217 220 221 221 222 223 223 224 226 230 232 236 240 242 243 245 247 248 247 247 249 250 251 251 254 260 266 268 272 276 273 263 258 259 258 256
217 217 220 219 213 212 216 217 210 205 204 205 205 205 205 205 206 205 204 203 205 208 209 208 210 213 215 218 222 222 220 220 222 221 220 218 214 213 214 217 218 217 217 218 218 216 214 216 218 218 218 219 221 223 224 227 229 227 224 226 229 232 234 237 240 241 243 246 248 249 250 254 257 257 257 261 267 274 276 276 276 274 271 272 273 270 266
213 215 218 216 209 209 213 213 207 202 201 201 201 201 202 203 203 202 201 201 202 205 207 207 208 210 212 215 217 216 214 214 216 216 216 214 211 209 210 213 215 215 215 217 219 217 215 216 218 220 221 223 223 225 227 229 232 232 229 229 232 235 237 240 242 243 245 248 251 252 253 256 260 262 263 265 269 272 272 272 270 269 270 273 274 272 271
211 212 213 210 206 208 212 209 202 198 197 197 198 199 200 201 200 199 199 200 201 204 206 205 204 205 208 211 212 211 210 210 211 211 212 211 207 203 203 207 211 212 214 216 217 216 216 218 218 219 222 224 225 228 231 233 235 235 233 233 235 237 240 242 244 246 248 251 254 256 256 257 260 262 263 265 267 268 267 266 266 268 270 271 270 270 272
207 209 207 204 204 209 210 204 197 194 193 194 195 197 198 198 198 197 198 199 200 202 203 201 198 200 204 206 207 208 208 208 208 209 208 205 201 197 195 199 205 208 211 213 214 213 214 217 218 218 220 222 224 228 232 235 237 237 237 236 236 236 238 242 245 247 249 252 255 257 257 258 258 260 261 261 262 263 263 263 263 266 269 270 271 271 273
202 203 201 200 203 206 204 197 191 189 190 191 192 194 195 195 196 195 195 196 197 198 197 195 193 195 199 201 202 203 205 205 206 207 205 200 195 191 189 192 198 203 206 209 210 210 212 216 217 216 216 219 222 225 229 232 235 237 239 239 238 238 239 241 244 247 249 252 254 256 258 259 258 259 260 260 259 259 260 261 261 262 264 266 268 269 270
197 196 195 196 199 200 197 191 186 185 186 188 189 191 192 192 193 193 193 194 193 192 192 190 189 191 195 196 196 197 200 202 203 202 201 197 193 188 185 186 190 195 200 203 206 207 211 216 217 214 213 216 220 222 226 231 235 238 239 239 240 241 242 243 244 247 250 252 254 256 258 259 260 260 259 259 258 258 259 261 263 264 264 265 266 266 266
190 189 188 190 194 194 189 184 180 180 182 184 186 188 189 189 189 190 191 192 190 188 187 186 185 187 190 192 192 193 194 197 199 198 195 194 191 188 184 182 183 186 191 196 200 203 207 212 215 213 210 212 215 219 224 230 234 235 237 240 241 242 243 244 245 248 251 254 256 257 256 256 257 258 258 259 260 262 263 264 266 266 267 267 267 267 268
183 183 183 185 189 188 182 178 176 176 178 180 182 183 184 185 185 185 186 187 186 185 184 182 181 184 187 188 191 193 192 191 193 194 191 189 189 189 188 185 182 182 183 187 193 198 203 207 210 210 207 207 211 217 224 230 234 235 236 239 242 243 245 246 248 251 252 253 254 255 255 255 256 259 261 264 266 268 269 269 269 269 269 269 270 270 271
178 179 180 182 183 181 176 172 171 173 174 175 177 179 180 180 180 182 183 182 181 182 182 179 178 182 184 184 186 192 193 191 190 189 186 184 185 188 189 190 189 184 180 181 185 188 195 201 205 205 205 205 207 212 219 226 232 235 237 239 241 243 245 246 246 246 244 245 248 252 255 258 261 263 265 266 268 269 270 270 271 272 272 272 272 272 272
175 175 176 177 177 173 170 168 168 169 170 172 172 173 174 175 175 177 179 178 178 180 179 173 174 181 184 181 181 186 190 191 191 187 183 181 181 182 186 190 192 190 187 186 185 185 188 193 197 199 202 203 203 206 212 220 228 236 241 243 246 247 248 247 245 244 244 246 248 252 255 257 260 262 263 265 266 268 269 271 272 272 273 273 272 272 272
170 171 171 172 171 168 165 164 165 166 167 168 168 168 169 171 172 173 175 175 176 178 174 171 173 180 181 178 177 181 185 189 190 188 184 182 181 179 180 184 187 189 191 192 192 194 197 198 198 200 203 203 204 207 212 218 226 234 240 246 250 252 252 252 250 250 251 252 253 253 253 254 255 257 259 261 263 264 266 267 268 269 270 271 271 271 271
164 164 166 167 166 164 163 162 162 163 164 164 164 164 166 167 168 169 171 173 172 171 170 171 175 178 176 174 174 177 180 184 186 185 185 186 183 181 181 182 182 183 186 188 191 198 205 207 207 209 210 209 209 212 215 219 225 231 237 243 248 250 252 253 253 254 255 255 256 257 257 257 258 259 259 260 261 263 264 265 267 268 269 270 271 271 271
158 156 158 162 163 162 161 160 160 160 161 160 160 160 160 161 163 166 167 169 169 168 167 170 174 175 173 172 172 173 176 180 181 179 181 185 184 181 181 183 183 182 183 186 189 197 204 209 212 216 217 215 214 215 217 220 223 227 231 236 240 243 247 251 254 256 257 258 258 259 260 261 262 262 263 263 264 265 266 267 268 269 270 270 271 272 273
152 147 151 158 161 161 160 158 158 158 158 157 156 154 153 153 158 163 166 168 169 168 167 169 173 174 171 168 168 171 174 176 177 175 174 176 179 179 181 184 185 183 184 187 192 198 204 208 212 216 218 217 216 215 217 219 223 226 229 234 238 242 246 250 253 256 258 259 260 261 261 262 262 262 262 263 265 265 266 266 267 267 268 269 270 271 271
147 142 147 157 161 160 158 157 156 155 155 153 150 147 147 148 151 156 162 166 168 169 170 171 172 171 169 166 164 167 170 173 176 176 172 167 168 177 185 187 185 183 184 187 191 197 204 208 212 216 220 220 220 219 219 221 224 227 231 235 239 243 247 250 253 256 258 260 262 263 264 265 266 266 266 266 267 267 267 267 267 267 268 268 269 269 270
146 142 148 159 163 161 157 156 154 151 150 151 149 148 148 148 148 150 155 161 166 169 172 172 169 167 168 168 164 160 163 168 175 178 175 170 170 179 187 188 182 182 188 192 193 197 203 206 208 214 220 224 226 225 223 223 225 227 230 235 240 245 250 253 255 258 260 262 264 266 268 269 270 270 271 270 270 270 270 270 271 271 272 272 273 273 273
148 145 148 158 163 161 157 154 150 148 149 152 152 152 150 149 148 150 153 158 164 167 169 167 165 165 168 168 162 157 161 167 171 174 176 176 178 183 188 186 181 183 190 196 197 199 203 204 203 206 211 217 222 225 225 226 228 229 232 236 241 245 249 252 255 258 261 264 266 268 269 270 271 272 273 273 273 274 275 275 276 277 278 278 279 279 279
146 145 146 154 160 160 156 152 150 150 153 155 154 153 151 149 151 154 155 155 159 161 159 158 161 165 168 166 160 158 162 166 167 170 175 180 182 185 187 185 183 186 193 199 201 203 204 204 205 209 214 218 222 225 228 230 233 236 239 242 244 246 249 252 255 258 261 263 266 268 269 271 272 274 275 276 276 278 280 281 282 283 284 284 285 285 284
143 142 144 150 156 158 156 154 152 153 155 155 154 152 150 150 152 156 156 155 154 153 151 153 160 166 169 166 161 159 162 164 166 169 173 176 178 181 182 182 183 188 195 201 203 204 205 206 208 213 218 222 225 227 230 234 239 242 245 247 250 252 254 257 259 262 264 266 268 270 272 273 275 276 278 279 280 282 283 284 285 286 287 288 288 288 287
141 140 142 149 155 157 156 155 154 155 155 155 155 154 153 153 154 156 155 152 151 151 152 157 163 167 168 166 162 160 161 164 167 169 168 167 169 173 176 178 182 188 193 199 202 204 205 207 209 214 219 223 226 229 232 236 240 244 246 249 252 255 257 261 263 266 268 270 272 274 276 277 279 280 280 281 281 282 282 283 285 286 288 289 290 291 292
139 137 140 146 152 155 155 155 155 157 159 159 158 158 158 157 157 155 152 151 152 155 158 161 163 165 166 166 163 162 164 168 170 170 169 169 171 174 175 177 182 186 190 194 199 202 204 207 210 214 219 224 227 231 236 240 244 248 251 255 258 261 263 266 269 271 273 275 276 277 277 277 277 277 277 276 276 277 277 280 283 286 288 291 293 297 299
137 136 139 144 149 152 153 153 153 156 160 160 159 159 159 157 157 156 155 155 157 158 160 162 163 163 164 165 165 167 170 171 170 171 174 176 178 180 180 181 183 186 189 194 198 202 205 209 213 216 220 224 228 233 238 244 249 254 259 263 266 268 270 272 274 275 275 274 273 273 273 273 274 273 273 273 275 276 279 282 285 288 291 293 296 298 301
135 135 138 143 148 150 150 150 151 154 157 158 159 161 162 161 161 160 160 159 158 157 158 161 163 163 162 164 166 170 174 175 173 174 177 180 182 184 185 187 188 191 194 198 202 205 207 211 215 219 223 227 231 237 242 248 253 259 263 267 269 270 271 272 272 271 270 269 269 271 273 275 275 273 274 277 280 283 284 285 287 289 292 294 295 296 297
133 135 138 142 146 148 148 149 151 154 156 156 159 163 165 164 161 159 159 160 160 157 157 160 163 163 164 166 168 171 176 179 179 179 182 184 185 188 190 193 195 197 200 204 208 211 213 215 219 224 228 233 237 242 248 253 258 262 265 268 269 271 271 272 271 271 272 273 274 275 277 279 279 278 280 285 288 290 290 290 290 291 293 295 295 295 296
Height
5728 5729 5729 5729 5730 5730 5732 5733 5734 5735 5735 5736 5737 5739 5741 5741 5741 5742 5744 5745 5747 5749 5750 5752 5753 5756 5758 5759 5761 5764 5767 5771 5773 5774 5776 5777 5779 5783 5785 5788 5790 5792 5795 5798 5799 5800 5800 5802 5805 5809 5812 5815 5819 5823 5825 5828 5831 5833 5834 5837 5841 5844 5845 5847 5850 5853 5856 5858 5861 5864 5867 5870 5871 5872 5874 5876 5877 5878 5880 5882 5883 5883 5883 5882 5883 5882 5880
5719 5720 5721 5721 5722 5722 5724 5725 5726 5728 5728 5729 5730 5732 5734 5734 5734 5734 5736 5739 5741 5743 5744 5746 5748 5750 5752 5753 5755 5759 5762 5766 5769 5771 5772 5773 5775 5778 5781 5784 5786 5788 5790 5791 5792 5795 5797 5798 5801 5804 5807 5811 5816 5820 5824 5826 5828 5829 5831 5834 5837 5838 5839 5843 5847 5849 5851 5853 5855 5857 5861 5864 5867 5868 5871 5873 5874 5876 5877 5879 5880 5880 5880 5880 5880 5880 5879
5711 5712 5712 5713 5714 5714 5716 5717 5718 5721 5721 5722 5723 5725 5727 5728 5727 5727 5730 5733 5735 5737 5739 5740 5742 5744 5745 5746 5750 5753 5756 5761 5764 5765 5767 5769 5771 5774 5777 5780 5781 5782 5782 5783 5785 5789 5792 5794 5798 5802 5805 5807 5811 5816 5820 5823 5825 5827 5829 5832 5833 5834 5835 5839 5841 5843 5845 5847 5849 5851 5855 5860 5864 5866 5868 5870 5872 5873 5873 5875 5875 5876 5877 5878 5878 5878 5878
5703 5703 5704 5705 5706 5706 5708 5708 5710 5713 5714 5714 5716 5718 5719 5721 5721 5722 5723 5727 5729 5732 5733 5734 5736 5738 5739 5741 5744 5747 5751 5756 5759 5760 5762 5765 5767 5770 5774 5776 5776 5777 5778 5778 5780 5784 5787 5789 5792 5798 5802 5804 5808 5810 5812 5815 5819 5823 5827 5829 5830 5831 5833 5835 5838 5841 5843 5845 5849 5852 5855 5858 5860 5863 5865 5867 5869 5870 5871 5871 5871 5873 5875 5876 5876 5876 5876
5695 5695 5696 5697 5698 5699 5700 5701 5702 5705 5707 5707 5709 5711 5713 5714 5715 5716 5717 5720 5722 5724 5726 5728 5730 5732 5734 5737 5740 5743 5746 5751 5753 5756 5759 5761 5763 5765 5768 5770 5771 5773 5774 5773 5775 5778 5783 5786 5786 5789 5793 5799 5804 5807 5808 5810 5813 5817 5822 5825 5827 5828 5829 5832 5836 5840 5843 5845 5848 5852 5854 5856 5858 5860 5862 5864 5865 5866 5866 5867 5869 5871 5872 5873 5874 5874 5874
5686 5687 5688 5689 5690 5691 5692 5693 5694 5696 5699 5700 5701 5703 5706 5707 5709 5710 5710 5712 5715 5717 5720 5722 5724 5727 5728 5732 5735 5738 5741 5745 5749 5751 5754 5756 5758 5759 5762 5764 5766 5769 5769 5767 5768 5771 5776 5781 5781 5781 5784 5791 5797 5802 5805 5807 5810 5813 5816 5819 5822 5824 5826 5830 5834 5838 5841 5844 5846 5849 5851 5853 5855 5858 5859 5861 5862 5862 5863 5864 5866 5867 5868 5869 5871 5871 5872
5678 5678 5679 5680 5681 5682 5684 5685 5686 5687 5690 5693 5694 5696 5698 5700 5702 5703 5704 5706 5708 5711 5714 5716 5719 5721 5722 5725 5729 5731 5735 5739 5742 5744 5746 5749 5751 5752 5755 5757 5759 5760 5760 5760 5762 5764 5768 5774 5776 5776 5781 5786 5791 5796 5800 5803 5806 5810 5813 5814 5817 5820 5823 5828 5832 5835 5838 5841 5843 5846 5848 5849 5852 5854 5856 5858 5859 5860 5861 5862 5864 5864 5865 5867 5868 5868 5869
5669 5669 5671 5672 5673 5674 5675 5677 5678 5679 5681 5684 5686 5688 5690 5692 5695 5696 5698 5700 5702 5704 5707 5710 5713 5715 5717 5719 5722 5725 5729 5733 5735 5737 5739 5742 5744 5745 5747 5750 5751 5754 5756 5757 5757 5758 5762 5767 5770 5773 5778 5783 5787 5792 5797 5799 5802 5806 5810 5811 5812 5815 5819 5825 5829 5832 5835 5838 5841 5844 5845 5846 5848 5850 5852 5853 5854 5854 5856 5858 5859 5861 5862 5864 5864 5864 5865
5659 5660 5661 5663 5664 5665 5666 5668 5669 5670 5673 5676 5678 5680 5682 5685 5687 5690 5692 5694 5696 5697 5700 5704 5707 5709 5710 5712 5716 5719 5723 5727 5731 5734 5736 5738 5741 5742 5742 5744 5747 5750 5753 5754 5752 5752 5756 5762 5766 5771 5776 5780 5784 5788 5793 5796 5798 5801 5804 5807 5809 5811 5815 5820 5825 5828 5830 5834 5837 5840 5842 5843 5845 5846 5848 5849 5849 5849 5851 5852 5853 5855 5857 5859 5859 5860 5862
5650 5651 5652 5653 5655 5656 5658 5660 5661 5662 5664 5667 5670 5673 5675 5677 5680 5683 5686 5688 5690 5692 5694 5697 5700 5702 5704 5706 5710 5712 5715 5720 5725 5729 5731 5734 5737 5739 5740 5741 5743 5746 5747 5748 5747 5748 5752 5759 5764 5769 5773 5777 5780 5784 5788 5792 5794 5796 5800 5803 5806 5809 5811 5815 5819 5823 5826 5830 5833 5836 5839 5840 5841 5842 5843 5845 5845 5845 5847 5847 5848 5850 5852 5854 5855 5857 5860
5640 5641 5643 5644 5646 5647 5649 5651 5653 5655 5656 5658 5661 5665 5667 5670 5673 5676 5679 5681 5683 5686 5689 5690 5692 5696 5698 5701 5703 5706 5710 5714 5718 5722 5726 5729 5731 5734 5736 5736 5738 5740 5740 5740 5742 5745 5750 5757 5762 5766 5770 5774 5777 5780 5784 5788 5790 5793 5796 5799 5802 5805 5808 5812 5816 5819 5823 5826 5829 5833 5836 5837 5836 5837 5838 5840 5840 5841 5843 5844 5844 5846 5849 5851 5852 5854 5856
5631 5632 5634 5635 5637 5639 5641 5643 5645 5647 5649 5651 5654 5657 5660 5663 5666 5669 5672 5675 5677 5679 5682 5684 5686 5690 5693 5695 5698 5701 5705 5709 5713 5718 5723 5725 5726 5728 5730 5731 5733 5734 5734 5737 5741 5744 5750 5756 5759 5762 5766 5770 5773 5777 5781 5784 5787 5789 5792 5796 5799 5801 5805 5809 5812 5816 5819 5822 5826 5829 5830 5831 5832 5832 5833 5834 5835 5836 5838 5839 5841 5843 5844 5846 5848 5850 5852
5622 5623 5625 5627 5629 5631 5633 5636 5638 5640 5642 5644 5646 5650 5653 5656 5659 5662 5665 5669 5671 5673 5676 5678 5680 5684 5687 5690 5693 5697 5701 5705 5710 5713 5717 5720 5722 5725 5727 5729 5730 5731 5734 5738 5742 5744 5748 5753 5756 5758 5762 5765 5770 5776 5779 5782 5784 5787 5789 5793 5796 5798 5801 5804 5807 5810 5814 5818 5822 5823 5824 5826 5828 5828 5829 5830 5831 5833 5834 5835 5837 5839 5840 5842 5844 5846 5848
5614 5615 5617 5618 5621 5623 5626 5628 5631 5633 5635 5637 5639 5643 5646 5649 5652 5656 5659 5663 5665 5666 5670 5673 5675 5678 5682 5685 5689 5692 5696 5701 5705 5708 5711 5715 5718 5722 5726 5728 5730 5732 5735 5739 5742 5743 5746 5750 5753 5756 5760 5764 5768 5773 5777 5779 5782 5784 5785 5788 5791 5795 5797 5799 5801 5805 5808 5813 5816 5818 5820 5823 5824 5824 5825 5827 5828 5830 5830 5831 5833 5835 5836 5838 5839 5841 5844
5606 5607 5609 5611 5613 5615 5618 5621 5624 5626 5629 5631 5633 5636 5640 5643 5646 5649 5653 5657 5659 5661 5665 5668 5670 5673 5677 5680 5684 5688 5691 5697 5700 5702 5705 5710 5714 5719 5723 5725 5727 5730 5733 5736 5739 5741 5742 5747 5752 5755 5758 5762 5765 5769 5773 5776 5778 5779 5781 5783 5786 5790 5793 5795 5798 5801 5804 5808 5811 5814 5817 5818 5819 5819 5821 5823 5825 5827 5828 5828 5828 5830 5833 5834 5835 5837 5839
5599 5600 5602 5604 5606 5608 5611 5613 5617 5619 5622 5624 5627 5630 5634 5637 5640 5643 5647 5651 5654 5657 5660 5663 5665 5669 5673 5676 5680 5683 5687 5691 5695 5697 5700 5705 5711 5715 5718 5720 5722 5725 5729 5733 5736 5737 5739 5743 5749 5753 5756 5759 5761 5765 5769 5772 5774 5775 5776 5777 5780 5784 5788 5791 5794 5797 5800 5803 5806 5809 5812 5813 5813 5815 5817 5819 5820 5821 5825 5825 5823 5824 5829 5831 5831 5833 5834
5592 5593 5595 5597 5599 5602 5604 5607 5610 5613 5616 5618 5621 5624 5628 5631 5634 5638 5641 5645 5650 5653 5655 5658 5661 5664 5668 5672 5675 5678 5682 5686 5690 5693 5695 5699 5705 5709 5712 5714 5717 5721 5727 5731 5732 5734 5737 5740 5745 5750 5753 5755 5758 5760 5763 5766 5768 5769 5770 5771 5775 5779 5782 5785 5788 5792 5795 5798 5801 5804 5805 5806 5808 5809 5811 5813 5814 5816 5822 5822 5818 5819 5826 5827 5828 5829 5830
5586 5587 5589 5591 5593 5595 5598 5600 5603 5607 5609 5612 5615 5618 5622 5625 5629 5633 5636 5640 5645 5648 5650 5653 5656 5660 5664 5667 5670 5673 5677 5680 5685 5688 5691 5695 5700 5703 5706 5709 5712 5716 5722 5727 5728 5730 5734 5737 5741 5745 5749 5751 5753 5754 5755 5758 5761 5762 5763 5766 5770 5773 5776 5780 5783 5786 5790 5793 5795 5797 5798 5799 5802 5804 5806 5808 5811 5814 5818 5817 5814 5817 5822 5823 5824 5825 5826
5580 5581 5583 5585 5587 5590 5592 5594 5597 5600 5604 5607 5609 5613 5616 5620 5624 5628 5631 5635 5640 5642 5643 5647 5652 5656 5659 5662 5665 5668 5672 5675 5679 5683 5687 5690 5694 5698 5700 5704 5707 5711 5716 5720 5722 5725 5728 5732 5735 5739 5743 5746 5747 5747 5748 5750 5754 5757 5760 5762 5765 5769 5772 5775 5778 5781 5784 5788 5791 5793 5794 5795 5797 5800 5803 5807 5811 5812 5813 5812 5813 5815 5818 5818 5819 5820 5821
5574 5575 5577 5579 5582 5584 5586 5589 5592 5595 5598 5601 5604 5607 5611 5615 5619 5623 5626 5630 5635 5637 5638 5642 5647 5651 5654 5657 5660 5663 5666 5669 5673 5678 5681 5684 5689 5693 5696 5700 5703 5708 5711 5713 5716 5719 5723 5726 5728 5733 5737 5739 5741 5742 5744 5746 5749 5753 5756 5759 5762 5765 5768 5771 5773 5776 5779 5782 5786 5788 5789 5790 5794 5798 5801 5805 5807 5807 5807 5809 5811 5812 5814 5815 5815 5816 5816
5568 5570 5572 5574 5576 5579 5581 5584 5587 5590 5593 5596 5599 5603 5607 5611 5614 5618 5622 5626 5629 5632 5634 5639 5643 5646 5649 5652 5656 5658 5661 5664 5667 5672 5676 5680 5684 5687 5691 5695 5700 5703 5705 5708 5711 5715 5719 5721 5723 5727 5731 5734 5737 5739 5741 5743 5746 5749 5753 5756 5758 5760 5764 5767 5769 5773 5776 5778 5780 5783 5786 5788 5792 5796 5799 5800 5801 5802 5804 5806 5807 5808 5810 5811 5811 5812 5812
5563 5565 5567 5569 5571 5574 5577 5579 5582 5585 5589 5592 5595 5599 5602 5606 5610 5613 5617 5620 5624 5627 5630 5634 5639 5642 5645 5648 5651 5654 5656 5659 5663 5667 5671 5675 5679 5682 5687 5691 5694 5697 5700 5704 5708 5711 5714 5717 5719 5723 5727 5730 5733 5735 5737 5739 5741 5744 5748 5752 5754 5757 5760 5764 5767 5770 5773 5774 5777 5781 5784 5786 5790 5793 5796 5797 5798 5798 5799 5800 5801 5803 5804 5805 5806 5807 5807
5559 5560 5562 5564 5567 5570 5572 5575 5578 5581 5585 5588 5591 5595 5598 5602 5605 5609 5612 5616 5620 5623 5626 5630 5634 5637 5640 5643 5647 5650 5653 5656 5660 5663 5667 5671 5675 5678 5683 5686 5689 5693 5697 5701 5704 5707 5711 5714 5716 5719 5723 5726 5728 5731 5733 5735 5738 5741 5744 5747 5750 5753 5756 5760 5763 5765 5768 5771 5774 5777 5779 5781 5785 5788 5791 5793 5794 5795 5795 5796 5796 5797 5798 5799 5799 5800 5800
5554 5556 5558 5560 5563 5566 5569 5571 5574 5578 5581 5584 5588 5591 5594 5598 5602 5605 5608 5612 5616 5619 5623 5626 5630 5633 5637 5642 5645 5648 5651 5654 5657 5660 5664 5668 5671 5674 5678 5682 5684 5689 5694 5698 5701 5704 5707 5710 5713 5716 5719 5722 5725 5728 5730 5732 5735 5739 5742 5745 5747 5749 5752 5756 5759 5761 5763 5766 5769 5772 5775 5778 5781 5784 5786 5788 5790 5790 5791 5792 5792 5792 5791 5791 5791 5792 5793
5550 5552 5554 5557 5560 5563 5565 5568 5571 5574 5578 5581 5584 5587 5591 5595 5598 5601 5605 5609 5613 5616 5619 5623 5627 5632 5636 5640 5642 5645 5648 5650 5653 5656 5660 5664 5667 5669 5674 5678 5681 5686 5691 5696 5699 5702 5705 5707 5710 5712 5715 5719 5722 5725 5727 5730 5733 5736 5740 5743 5745 5747 5749 5753 5755 5757 5759 5761 5765 5768 5771 5774 5777 5779 5781 5783 5784 5785 5786 5787 5787 5786 5785 5784 5784 5785 5786
5546 5548 5551 5554 5556 5559 5562 5565 5568 5571 5575 5578 5581 5584 5588 5592 5595 5599 5603 5606 5610 5613 5617 5620 5625 5629 5632 5634 5636 5639 5642 5645 5648 5652 5656 5659 5662 5665 5669 5674 5679 5684 5689 5693 5696 5700 5703 5705 5707 5710 5713 5716 5718 5721 5724 5727 5730 5733 5737 5740 5742 5744 5747 5749 5751 5754 5757 5759 5761 5764 5766 5769 5772 5774 5775 5777 5778 5779 5779 5780 5781 5781 5780 5779 5778 5779 5780
5543 5546 5548 5551 5554 5557 5559 5562 5565 5568 5572 5575 5579 5582 5586 5590 5593 5596 5600 5604 5607 5610 5613 5617 5621 5624 5627 5630 5633 5636 5639 5642 5645 5648 5652 5655 5658 5661 5666 5671 5675 5681 5686 5690 5693 5697 5700 5702 5705 5708 5710 5712 5715 5718 5721 5723 5726 5730 5733 5737 5739 5742 5743 5745 5748 5751 5754 5756 5757 5759 5762 5764 5767 5768 5769 5771 5772 5773 5774 5774 5775 5775 5775 5774 5773 5774 5775
5540 5543 5545 5548 5551 5554 5557 5559 5562 5566 5569 5573 5576 5580 5584 5587 5591 5594 5598 5601 5604 5607 5609 5613 5617 5620 5624 5628 5631 5634 5637 5639 5642 5645 5648 5651 5654 5657 5662 5667 5672 5678 5683 5687 5690 5694 5697 5699 5702 5705 5707 5709 5712 5715 5717 5720 5723 5727 5730 5733 5736 5739 5741 5742 5745 5748 5751 5752 5753 5755 5758 5760 5762 5763 5765 5766 5767 5768 5769 5770 5770 5770 5770 5769 5769 5770 5770
5538 5540 5543 5545 5548 5552 5555 5557 5560 5564 5567 5571 5574 5578 5582 5585 5588 5592 5595 5598 5601 5604 5607 5610 5614 5617 5621 5625 5628 5631 5634 5637 5639 5642 5645 5648 5651 5654 5659 5664 5669 5674 5679 5683 5686 5691 5694 5696 5698 5701 5704 5707 5709 5712 5715 5717 5720 5724 5727 5730 5732 5735 5737 5740 5743 5745 5747 5747 5748 5752 5755 5757 5757 5759 5762 5762 5763 5763 5764 5765 5766 5766 5766 5766 5765 5765 5766
5536 5538 5541 5543 5547 5550 5552 5555 5558 5562 5566 5569 5573 5577 5580 5583 5586 5590 5593 5596 5599 5602 5605 5608 5611 5615 5619 5622 5625 5629 5632 5634 5637 5640 5642 5645 5648 5651 5656 5661 5666 5671 5675 5679 5683 5687 5691 5693 5696 5699 5702 5704 5707 5710 5712 5715 5718 5721 5724 5727 5729 5731 5734 5736 5739 5741 5741 5742 5745 5749 5752 5753 5753 5755 5757 5757 5758 5759 5760 5762 5762 5762 5762 5762 5762 5762 5762
5534 5536 5539 5542 5545 5548 5550 5553 5557 5560 5564 5568 5571 5575 5578 5581 5585 5588 5591 5594 5597 5600 5603 5606 5609 5613 5616 5620 5623 5626 5630 5632 5635 5637 5640 5643 5645 5649 5654 5659 5663 5668 5672 5676 5680 5684 5687 5690 5693 5696 5699 5702 5705 5708 5710 5713 5715 5719 5722 5724 5726 5728 5730 5732 5734 5735 5736 5738 5741 5744 5746 5748 5749 5750 5751 5753 5754 5755 5756 5757 5757 5756 5757 5757 5757 5757 5757
5532 5535 5538 5541 5543 5546 5549 5552 5555 5559 5563 5566 5570 5573 5577 5580 5583 5586 5589 5592 5595 5598 5601 5604 5607 5611 5614 5618 5622 5625 5628 5631 5633 5636 5638 5641 5644 5648 5652 5656 5660 5665 5669 5673 5677 5681 5684 5686 5690 5694 5697 5700 5703 5705 5708 5710 5713 5715 5718 5720 5722 5724 5726 5728 5730 5731 5733 5735 5737 5738 5741 5743 5744 5746 5747 5749 5750 5750 5750 5751 5751 5751 5751 5751 5751 5751 5752
5531 5534 5537 5540 5542 5545 5547 5550 5554 5558 5561 5565 5569 5572 5576 5578 5581 5584 5587 5590 5593 5596 5599 5602 5606 5609 5613 5617 5621 5624 5627 5629 5632 5634 5636 5639 5642 5646 5651 5654 5658 5662 5666 5670 5674 5677 5680 5683 5686 5691 5695 5697 5700 5703 5705 5707 5709 5712 5713 5715 5717 5720 5723 5726 5727 5728 5730 5732 5733 5734 5736 5738 5739 5741 5742 5744 5744 5745 5745 5746 5746 5746 5746 5747 5747 5747 5747
5531 5534 5536 5539 5541 5544 5546 5550 5553 5557 5561 5564 5568 5571 5574 5577 5580 5583 5586 5589 5591 5594 5597 5601 5605 5609 5612 5616 5619 5622 5625 5628 5630 5633 5635 5638 5641 5645 5649 5653 5657 5660 5663 5667 5671 5675 5678 5680 5684 5689 5692 5695 5698 5700 5702 5704 5707 5708 5709 5711 5715 5718 5720 5722 5724 5725 5727 5729 5730 5731 5732 5733 5734 5735 5736 5737 5738 5739 5740 5741 5742 5742 5743 5743 5743 5743 5744
5531 5533 5536 5538 5541 5543 5546 5549 5553 5556 5560 5564 5567 5570 5573 5576 5579 5582 5585 5588 5591 5593 5596 5600 5604 5608 5611 5614 5617 5620 5623 5626 5629 5631 5634 5636 5640 5644 5648 5652 5655 5658 5661 5665 5669 5672 5675 5678 5682 5686 5690 5693 5695 5697 5699 5701 5703 5704 5705 5707 5711 5714 5716 5719 5720 5722 5723 5725 5726 5727 5728 5729 5729 5730 5731 5732 5732 5733 5734 5736 5737 5738 5738 5738 5738 5738 5738
5531 5533 5536 5538 5540 5543 5545 5549 5552 5556 5560 5563 5566 5570 5573 5576 5578 5581 5584 5587 5590 5593 5596 5599 5603 5607 5611 5614 5617 5619 5622 5625 5628 5630 5633 5636 5639 5642 5647 5650 5654 5657 5660 5663 5667 5670 5673 5676 5678 5682 5686 5690 5692 5695 5697 5698 5698 5698 5701 5704 5707 5710 5713 5716 5718 5719 5720 5721 5722 5723 5724 5724 5725 5726 5727 5727 5728 5728 5729 5729 5730 5731 5732 5732 5732 5732 5733
5531 5533 5536 5538 5540 5543 5546 5550 5553 5557 5560 5564 5567 5570 5573 5575 5578 5581 5584 5586 5589 5592 5595 5599 5604 5608 5610 5613 5617 5620 5622 5625 5627 5630 5633 5635 5638 5641 5645 5649 5652 5656 5659 5662 5665 5668 5671 5672 5674 5678 5683 5687 5690 5692 5694 5693 5693 5694 5697 5701 5704 5707 5710 5712 5714 5715 5715 5716 5717 5718 5719 5720 5721 5722 5722 5723 5723 5723 5723 5723 5724 5724 5725 5726 5726 5726 5727
5531 5534 5536 5539 5541 5544 5548 5551 5555 5558 5561 5564 5567 5570 5573 5575 5578 5581 5584 5586 5589 5592 5595 5600 5605 5608 5610 5613 5616 5619 5622 5625 5628 5630 5632 5635 5637 5640 5643 5647 5650 5655 5658 5660 5663 5665 5667 5668 5671 5676 5680 5683 5685 5688 5689 5690 5690 5691 5693 5697 5700 5703 5705 5707 5708 5709 5710 5711 5713 5714 5716 5716 5716 5717 5717 5717 5718 5718 5718 5718 5718 5718 5719 5719 5720 5720 5720
5532 5535 5537 5540 5542 5545 5549 5552 5556 5559 5562 5565 5568 5571 5573 5576 5578 5581 5584 5586 5589 5592 5596 5601 5605 5607 5610 5613 5616 5619 5622 5625 5628 5630 5633 5635 5636 5639 5642 5645 5649 5653 5655 5658 5661 5662 5663 5665 5670 5674 5676 5678 5682 5684 5686 5688 5689 5690 5692 5694 5696 5698 5700 5701 5702 5703 5705 5706 5708 5709 5710 5711 5712 5712 5713 5713 5713 5713 5713 5713 5713 5713 5713 5713 5713 5713 5713
5533 5536 5538 5540 5544 5547 5550 5554 5557 5560 5563 5566 5569 5571 5574 5576 5579 5581 5584 5587 5590 5593 5597 5601 5604 5607 5609 5613 5616 5619 5622 5625 5627 5630 5633 5635 5637 5640 5642 5645 5648 5651 5653 5656 5658 5659 5660 5664 5669 5672 5674 5677 5681 5684 5686 5688 5689 5691 5692 5694 5694 5695 5695 5695 5696 5698 5700 5701 5702 5703 5704 5705 5706 5707 5708 5708 5708 5708 5708 5708 5708 5708 5707 5707 5706 5706 5706
5535 5537 5539 5541 5545 5548 5552 5555 5558 5561 5565 5567 5570 5573 5575 5577 5580 5582 5585 5587 5590 5593 5597 5601 5604 5606 5610 5613 5616 5618 5622 5625 5627 5630 5632 5635 5638 5641 5643 5645 5648 5651 5653 5655 5656 5658 5661 5664 5667 5669 5672 5676 5680 5682 5684 5686 5688 5689 5690 5691 5691 5690 5690 5691 5693 5695 5696 5697 5698 5699 5700 5700 5701 5701 5702 5702 5703 5703 5703 5703 5703 5702 5701 5701 5700 5700 5699
5536 5538 5540 5543 5547 5550 5553 5556 5560 5563 5566 5568 5571 5574 5576 5579 5581 5583 5585 5588 5590 5594 5597 5600 5603 5606 5610 5613 5615 5618 5621 5624 5627 5629 5632 5635 5638 5641 5643 5645 5648 5651 5653 5655 5656 5658 5661 5663 5665 5667 5670 5674 5677 5680 5682 5683 5684 5686 5687 5687 5687 5687 5688 5689 5690 5691 5692 5693 5694 5694 5695 5695 5696 5696 5697 5697 5698 5698 5698 5698 5697 5697 5696 5696 5695 5694 5694
5538 5540 5543 5545 5548 5552 5555 5558 5561 5564 5567 5570 5573 5575 5578 5580 5583 5585 5587 5589 5592 5595 5597 5600 5603 5606 5610 5613 5615 5618 5621 5624 5627 5629 5631 5635 5638 5640 5642 5644 5647 5650 5652 5654 5656 5658 5659 5661 5664 5667 5670 5672 5675 5677 5679 5680 5681 5682 5683 5684 5684 5685 5686 5687 5687 5687 5688 5688 5689 5689 5690 5690 5690 5691 5692 5692 5692 5692 5692 5691 5691 5691 5690 5690 5689 5688 5688
5540 5542 5544 5547 5550 5553 5556 5560 5563 5566 5569 5572 5574 5576 5578 5581 5583 5586 5588 5590 5593 5595 5598 5600 5604 5607 5610 5613 5615 5618 5620 5623 5626 5629 5631 5634 5637 5639 5641 5643 5646 5649 5650 5652 5654 5656 5659 5661 5664 5666 5669 5670 5672 5673 5675 5677 5678 5679 5680 5681 5682 5682 5683 5683 5684 5684 5684 5684 5684 5684 5685 5685 5685 5685 5685 5686 5686 5686 5685 5685 5685 5684 5684 5683 5682 5681 5681
5542 5544 5546 5549 5552 5555 5558 5561 5564 5567 5570 5573 5575 5577 5580 5582 5584 5586 5588 5591 5593 5596 5599 5602 5605 5608 5610 5613 5616 5618 5620 5623 5626 5629 5631 5634 5636 5638 5640 5643 5646 5648 5650 5652 5654 5656 5659 5661 5664 5665 5667 5669 5670 5671 5672 5673 5674 5676 5677 5679 5679 5680 5680 5680 5680 5680 5680 5680 5680 5680 5680 5680 5680 5680 5680 5679 5679 5679 5679 5678 5678 5678 5677 5676 5675 5674 5674
5544 5546 5548 5551 5554 5557 5560 5562 5565 5568 5571 5573 5576 5578 5581 5584 5586 5588 5589 5592 5594 5597 5600 5603 5606 5608 5610 5613 5616 5618 5620 5623 5626 5628 5631 5634 5636 5638 5641 5644 5647 5648 5650 5652 5654 5656 5659 5661 5663 5664 5665 5667 5667 5668 5668 5670 5671 5673 5675 5676 5676 5676 5676 5676 5677 5677 5677 5677 5677 5676 5676 5676 5676 5676 5675 5674 5674 5674 5673 5672 5672 5671 5670 5670 5669 5668 5667
5547 5549 5551 5553 5556 5559 5561 5564 5566 5569 5572 5575 5577 5580 5582 5585 5587 5589 5591 5593 5596 5599 5602 5604 5606 5608 5611 5614 5617 5619 5621 5624 5626 5629 5631 5634 5636 5638 5641 5644 5646 5648 5649 5651 5653 5655 5658 5660 5661 5662 5663 5664 5665 5666 5667 5668 5670 5671 5672 5672 5672 5673 5673 5673 5674 5673 5673 5673 5673 5673 5672 5672 5672 5671 5671 5670 5669 5669 5668 5667 5667 5666 5665 5664 5663 5662 5661
5549 5551 5553 5556 5558 5561 5563 5566 5568 5571 5573 5576 5579 5581 5584 5586 5589 5591 5594 5596 5598 5600 5603 5605 5607 5609 5612 5615 5618 5620 5623 5625 5627 5629 5632 5635 5637 5639 5641 5643 5645 5647 5648 5650 5652 5654 5656 5658 5659 5660 5661 5662 5663 5665 5666 5667 5667 5668 5669 5669 5670 5670 5670 5670 5670 5670 5670 5670 5669 5669 5669 5668 5668 5667 5667 5666 5666 5665 5665 5664 5663 5662 5661 5660 5659 5657 5655
5551 5553 5556 5558 5561 5563 5565 5568 5571 5574 5576 5578 5580 5582 5585 5587 5589 5592 5595 5597 5598 5601 5603 5605 5608 5611 5613 5616 5618 5620 5623 5625 5627 5630 5632 5634 5636 5638 5640 5642 5644 5646 5648 5650 5652 5653 5655 5656 5657 5658 5659 5661 5662 5663 5664 5665 5665 5666 5666 5667 5667 5667 5668 5668 5668 5668 5667 5667 5667 5666 5666 5665 5664 5664 5663 5663 5662 5662 5661 5660 5659 5658 5657 5655 5654 5652 5650
5554 5556 5558 5561 5563 5566 5569 5571 5574 5576 5579 5582 5584 5585 5587 5589 5591 5593 5595 5597 5599 5601 5604 5606 5609 5611 5614 5617 5619 5621 5623 5625 5627 5630 5632 5634 5636 5637 5639 5642 5644 5646 5648 5649 5650 5652 5653 5654 5656 5657 5659 5660 5661 5662 5662 5663 5664 5664 5665 5665 5665 5665 5665 5665 5665 5665 5665 5664 5664 5663 5662 5662 5661 5661 5660 5659 5659 5658 5657 5656 5655 5654 5652 5651 5649 5647 5645
5558 5560 5562 5564 5566 5569 5572 5574 5577 5579 5581 5584 5586 5588 5589 5591 5593 5595 5597 5599 5601 5604 5606 5608 5610 5613 5615 5618 5620 5622 5624 5626 5628 5630 5632 5634 5635 5637 5639 5641 5643 5645 5647 5648 5649 5651 5652 5654 5655 5656 5658 5658 5659 5660 5661 5662 5662 5663 5663 5663 5663 5663 5663 5662 5662 5662 5661 5661 5660 5660 5659 5658 5658 5657 5656 5655 5655 5654 5653 5652 5650 5649 5648 5646 5645 5643 5642
5561 5563 5565 5568 5570 5572 5575 5577 5579 5581 5584 5586 5588 5589 5591 5593 5595 5597 5600 5602 5604 5607 5609 5611 5613 5615 5617 5619 5621 5623 5624 5626 5629 5631 5632 5634 5636 5638 5640 5641 5643 5645 5646 5647 5649 5650 5651 5653 5654 5655 5656 5657 5658 5658 5659 5659 5660 5660 5660 5660 5660 5660 5660 5659 5659 5658 5657 5657 5656 5656 5655 5654 5653 5653 5652 5651 5650 5649 5648 5647 5646 5645 5644 5643 5641 5640 5639